Theta_e
310 310 310 310 310 310 311 311 311 311 311 311 311 312 312 312 312 313 314 314 313 312 312 315 316 316 317 320 319 319 319 320 321 321 320 319 318 319 318 318 318 318 318 318 318
310 310 310 311 311 312 312 312 312 312 312 312 312 312 313 313 314 315 314 313 312 312 312 314 317 318 319 320 320 319 321 321 320 318 318 319 318 318 318 318 318 318 318 319 318
310 311 312 312 312 312 312 311 312 311 311 311 311 311 312 312 313 316 313 313 312 313 313 315 318 318 318 319 321 321 320 320 319 319 319 318 317 318 318 316 318 318 317 317 318
312 312 312 312 311 311 311 311 312 312 313 314 315 315 315 314 317 313 314 314 312 312 313 315 317 318 318 319 320 319 319 319 319 319 319 318 318 318 318 318 317 317 317 317 317
312 311 310 311 312 313 315 316 317 318 319 319 319 319 318 316 315 315 314 313 313 313 312 316 316 317 318 318 317 317 318 319 318 318 318 318 318 317 317 317 317 317 317 317 316
310 312 314 316 317 317 318 317 317 317 317 316 315 315 315 316 318 317 313 313 312 312 313 316 316 317 317 317 316 317 317 316 316 316 316 316 316 317 316 316 316 316 316 316 316
316 317 317 317 316 316 315 315 316 316 316 315 314 312 313 316 317 318 315 313 312 312 315 316 316 316 316 317 315 316 315 314 315 316 315 317 314 314 316 316 316 317 316 315 316
316 315 315 316 316 317 317 318 318 319 319 319 317 312 313 314 315 314 314 313 311 312 313 316 316 315 315 316 316 315 314 315 316 317 315 315 314 314 316 316 315 315 315 315 315
315 316 316 317 318 319 320 321 322 322 321 320 316 312 315 312 312 312 312 311 311 311 312 313 313 315 315 315 315 314 314 315 316 317 315 314 315 315 315 315 315 315 315 315 315
316 317 318 319 321 322 323 323 323 323 320 316 312 313 313 313 312 311 312 310 312 312 313 313 314 314 313 313 314 316 316 316 316 316 315 314 313 313 316 316 316 316 316 315 312
318 319 320 322 323 323 324 324 324 323 323 321 322 320 322 317 316 313 311 311 313 314 315 314 314 314 315 315 316 315 314 314 315 315 314 315 315 314 315 315 315 315 315 315 309
321 322 323 323 323 322 322 323 323 321 319 321 322 322 321 320 316 313 312 312 313 314 315 314 314 315 315 315 314 314 314 314 314 315 314 313 314 314 313 314 314 314 312 310 308
322 322 323 324 322 321 323 322 320 319 316 320 319 318 316 316 318 316 314 313 314 315 316 315 317 316 316 315 315 314 315 314 314 313 313 312 312 313 314 315 311 310 308 307 306
323 323 323 323 321 323 322 322 320 320 320 321 315 311 309 312 313 311 313 313 314 317 317 317 315 314 313 313 313 314 314 313 313 312 312 310 311 313 313 312 309 308 307 306 305
323 322 322 322 324 323 323 322 321 318 326 318 310 310 309 312 310 309 310 311 314 314 313 315 312 312 313 314 314 314 312 312 311 311 311 312 312 314 314 310 309 308 306 305 304
322 321 321 321 321 322 321 321 320 322 326 317 311 312 310 309 309 309 310 309 310 312 312 312 311 311 313 314 311 311 310 310 310 311 314 315 315 316 313 310 308 308 306 305 304
321 320 320 320 322 320 320 320 325 325 321 320 315 312 313 312 311 311 312 311 315 317 317 316 314 311 312 313 310 310 310 315 318 314 317 316 317 317 317 310 308 307 306 304 303
319 319 318 317 317 318 319 321 324 321 321 317 316 314 318 315 314 312 314 316 316 316 317 317 316 313 309 313 314 312 316 317 319 319 318 314 316 318 311 308 308 306 305 303 302
318 317 315 314 314 317 318 322 321 319 318 318 320 321 320 319 320 319 317 317 316 316 316 314 316 309 309 309 311 316 318 317 319 312 316 315 314 313 309 308 307 305 303 301 300
315 314 314 313 312 312 316 317 317 316 315 317 320 318 317 317 318 317 315 315 315 311 311 316 317 317 313 311 311 313 311 316 315 313 308 312 312 313 312 310 306 303 301 300 298
308 308 308 310 310 311 313 314 312 312 313 315 316 316 315 314 314 314 314 315 316 311 313 315 316 315 314 312 313 309 310 310 312 312 313 313 311 311 310 310 306 302 301 299 297
306 307 305 307 310 311 312 311 310 310 311 312 313 314 314 312 312 312 313 312 314 313 314 313 314 313 313 311 309 310 311 312 316 313 312 313 314 309 305 303 303 302 301 298 297
303 306 303 309 310 310 310 310 310 310 310 311 312 312 311 311 311 311 310 311 311 312 312 312 311 306 305 307 311 312 311 312 311 310 312 314 312 309 303 303 303 303 300 298 296
302 305 305 309 309 310 310 310 310 309 310 310 310 309 309 309 309 309 308 310 309 309 307 308 310 305 306 306 306 306 306 307 306 309 308 307 307 305 306 305 304 301 298 297 295
301 303 305 307 307 308 308 307 308 309 309 307 309 309 308 307 306 306 306 306 307 306 305 306 302 304 304 305 304 303 303 304 305 304 304 304 304 304 305 300 297 295 294 294 295
299 299 302 304 305 307 307 306 306 306 306 306 306 305 305 306 306 303 304 304 304 303 303 304 297 299 295 300 301 301 301 301 301 301 301 301 301 301 297 296 296 296 294 292 291
297 298 301 302 303 305 306 306 305 305 305 303 303 303 303 302 300 300 300 300 301 300 300 299 296 291 292 298 296 293 297 298 299 299 299 299 298 294 295 295 293 292 292 292 292
Wind_Speed
4 4 4 4 5 5 6 6 7 8 8 9 10 11 13 13 14 16 15 9 10 7 7 5 4 2 2 3 3 2 2 4 7 3 3 8 3 1 5 10 15 10 15 18 17
6 6 6 6 6 7 7 8 8 9 10 10 11 12 13 15 16 14 6 2 1 1 4 4 2 4 4 3 3 3 3 4 7 9 7 18 14 14 9 17 20 19 20 22 19
8 8 8 9 9 9 9 10 10 11 11 11 12 12 13 14 14 2 1 1 2 3 2 5 5 6 10 8 7 5 4 7 14 21 12 10 16 15 16 9 21 22 28 27 17
11 11 11 11 11 11 11 11 12 12 13 12 13 13 12 10 4 2 3 4 8 7 6 7 7 7 5 7 12 7 15 16 18 17 9 5 14 16 23 25 26 28 29 29 26
13 12 12 11 12 12 12 12 12 13 14 14 13 13 11 5 8 14 13 14 13 10 8 8 9 11 6 7 12 7 13 19 19 15 17 17 18 13 33 30 29 30 26 24 22
12 12 11 11 11 12 13 13 14 14 14 14 14 13 10 7 10 13 11 8 6 7 7 11 4 7 14 12 10 12 14 16 20 25 27 16 16 11 28 26 27 27 25 21 21
13 13 12 11 11 11 12 12 13 13 13 13 13 12 12 15 13 13 12 11 9 7 9 8 12 8 6 6 7 10 6 10 17 20 10 9 7 10 24 21 14 17 19 23 20
12 11 9 9 9 10 11 11 11 11 12 12 10 8 7 9 11 10 11 12 9 9 11 13 13 9 9 9 9 7 6 5 6 10 5 8 8 10 17 18 22 29 32 28 29
11 9 8 8 8 9 10 11 11 12 11 10 7 5 5 5 4 4 4 4 4 7 10 8 5 5 9 4 5 7 5 10 11 15 5 6 5 9 20 26 28 37 32 26 25
11 10 9 8 8 9 10 11 11 9 6 3 2 3 5 5 5 5 4 4 3 3 2 4 5 3 3 4 4 7 11 11 13 8 7 7 9 9 20 24 28 29 29 22 11
12 11 9 8 8 9 9 7 7 4 4 6 8 13 12 10 9 8 3 6 6 5 4 8 3 6 10 10 10 5 8 11 10 9 12 14 15 9 17 29 29 27 27 7 24
14 13 11 8 7 6 4 1 3 3 9 18 22 19 16 17 4 5 6 7 6 6 11 3 7 12 7 6 8 10 11 12 8 7 8 10 16 19 19 22 27 14 24 25 19
15 13 12 10 7 4 1 1 1 5 5 7 7 5 4 7 4 7 8 4 5 7 7 10 6 11 5 7 10 11 11 10 8 7 6 9 7 8 9 5 25 27 27 24 21
14 11 10 7 3 3 3 2 4 10 3 6 4 2 2 4 3 5 9 4 3 5 5 6 4 2 4 7 6 9 8 2 5 4 3 7 5 6 15 4 14 21 23 19 16
18 11 9 9 6 4 5 3 5 4 5 4 4 4 4 2 3 1 6 3 5 6 2 2 7 5 6 6 1 4 3 3 5 4 5 7 5 5 7 10 9 14 19 16 15
14 13 11 8 8 10 7 4 3 2 7 4 5 5 4 5 3 3 2 1 3 2 5 9 2 2 5 3 0 3 4 9 7 5 2 3 4 4 4 8 6 13 16 15 15
15 14 13 10 8 7 7 5 3 5 2 5 3 4 4 5 5 5 5 4 4 3 5 3 8 4 2 2 3 2 3 4 1 1 5 7 4 4 3 10 13 15 19 15 13
14 14 12 11 9 8 9 2 7 1 6 3 3 3 4 7 6 7 4 8 10 8 3 4 4 5 5 2 2 4 1 3 5 3 4 6 5 5 7 20 24 22 19 14 13
13 11 10 10 9 10 6 4 5 7 4 8 5 5 8 10 7 2 7 9 5 1 4 3 2 3 2 3 2 4 2 3 2 3 2 5 5 7 14 11 15 18 17 14 10
13 10 13 11 8 7 2 4 7 7 4 3 6 6 6 4 4 6 5 3 4 5 4 3 4 1 3 2 2 2 4 1 1 3 4 6 4 7 7 10 10 11 15 10 7
11 6 8 16 13 6 4 6 8 14 6 5 6 10 10 6 6 5 3 2 4 5 6 4 2 3 1 4 6 2 2 4 1 3 3 8 6 7 6 6 11 11 9 6 4
11 2 6 18 6 6 8 6 7 7 6 5 3 5 6 5 6 8 8 7 7 7 4 6 3 4 8 8 8 6 9 7 7 6 4 11 15 5 7 9 13 8 6 3 2
8 6 12 25 5 8 5 7 10 6 9 5 6 8 3 5 4 7 7 11 9 4 2 2 1 2 8 5 3 2 3 2 4 2 7 10 6 5 9 7 5 6 6 3 3
10 3 6 18 14 4 10 11 11 10 12 12 4 4 3 6 5 2 1 3 7 6 6 3 3 6 6 10 10 6 9 10 3 5 10 13 19 20 13 7 10 7 6 5 5
12 4 9 5 9 11 5 3 15 9 8 3 4 10 8 5 6 12 9 3 8 7 3 1 4 2 9 10 10 10 13 18 16 16 12 22 22 23 19 5 6 4 5 3 5
7 5 6 2 14 14 12 6 10 5 8 7 8 3 7 9 6 1 3 1 2 1 3 3 3 3 6 6 10 15 21 19 19 21 22 22 24 13 10 5 1 1 4 1 5
11 8 4 8 3 5 12 12 6 5 5 2 2 3 3 3 10 8 2 4 1 3 3 3 3 2 6 2 4 7 18 20 18 20 20 18 13 2 2 1 2 4 5 8 10
Wind_Direction
281 296 308 316 321 323 323 324 325 324 322 322 322 325 324 325 324 316 311 286 291 278 255 242 239 263 185 236 248 295 293 274 284 307 270 130 167 259 267 269 280 263 266 277 283
288 295 299 301 303 306 308 310 311 311 313 315 316 318 320 322 323 314 305 333 62 181 225 224 212 222 231 213 203 234 238 261 321 338 327 325 335 327 318 291 285 289 286 278 261
281 286 290 295 299 302 302 302 303 305 306 308 311 313 318 325 327 240 220 72 60 53 165 202 232 230 242 252 208 210 227 284 308 318 340 332 304 296 288 277 273 291 305 305 289
283 288 292 295 297 299 300 300 302 304 305 307 309 310 316 322 303 313 264 272 296 296 260 214 213 208 232 241 230 253 253 274 290 291 305 283 292 302 285 268 272 282 288 292 291
279 284 289 293 297 298 298 300 302 302 302 303 303 303 310 306 257 270 282 278 276 276 234 203 219 226 253 262 298 259 257 263 288 294 285 285 274 284 282 277 276 280 290 285 290
271 276 281 286 291 296 299 303 306 305 304 303 299 296 289 241 265 266 272 269 253 232 217 206 226 260 284 282 269 296 328 309 286 277 273 267 269 288 280 282 280 279 279 287 285
269 276 281 287 293 297 303 307 311 310 309 305 298 289 271 265 263 269 274 270 255 233 225 245 249 254 305 311 335 330 323 286 273 267 246 209 297 234 276 301 301 285 289 288 287
259 267 275 281 287 295 302 308 310 311 308 304 296 278 257 268 265 271 269 272 258 242 232 223 233 248 259 279 303 276 252 281 265 268 152 129 271 284 300 332 320 304 291 292 298
257 259 264 272 286 297 305 311 313 309 305 298 281 243 263 293 277 291 276 227 274 234 235 247 235 239 282 238 291 234 261 271 284 277 130 162 245 274 287 283 284 281 284 293 301
247 252 259 271 291 302 309 317 314 302 292 291 229 241 246 239 272 279 298 214 143 163 114 159 202 221 232 227 241 280 297 311 310 315 307 261 248 252 275 294 281 281 293 299 60
240 244 251 265 295 310 320 337 329 309 294 256 279 276 291 263 278 279 226 161 136 182 208 185 212 205 229 240 264 314 309 298 298 307 299 285 289 308 293 276 286 292 292 325 72
240 243 249 265 294 315 328 18 309 298 303 279 268 257 256 256 261 271 161 174 185 214 210 129 227 238 266 326 310 297 286 284 279 284 325 320 300 290 276 270 269 289 72 74 66
247 249 257 264 287 274 232 246 300 330 261 295 226 229 219 256 242 178 182 199 201 232 232 216 262 329 311 296 275 272 271 291 313 343 303 300 282 268 280 346 79 70 74 67 60
254 255 247 240 246 212 195 193 303 325 270 189 172 178 168 157 197 233 190 202 202 252 238 239 223 196 248 260 253 277 261 320 301 335 236 45 282 327 281 77 81 77 73 69 66
232 230 214 191 182 210 211 238 310 338 295 110 135 165 169 215 149 78 162 169 251 189 207 199 169 185 213 230 272 262 10 280 254 244 307 233 249 245 235 107 103 91 88 78 72
207 214 224 225 215 226 227 240 304 201 242 132 130 163 184 181 151 127 133 205 273 307 214 261 103 278 230 230 282 11 296 269 257 218 284 238 212 304 92 156 123 110 102 96 80
218 221 219 199 193 223 205 167 207 228 149 151 153 178 232 163 166 190 174 188 219 238 219 266 226 204 209 250 126 85 329 308 276 119 212 51 3 258 348 171 153 132 111 95 84
198 186 188 214 200 182 171 152 210 253 256 102 110 188 227 148 222 191 241 236 227 242 261 238 291 124 161 210 10 175 338 191 265 320 308 2 236 246 84 85 102 108 105 87 67
185 201 203 203 188 184 177 213 195 208 296 269 169 238 228 228 216 228 228 262 276 78 236 322 203 163 149 66 62 141 191 75 39 234 212 232 276 289 116 105 112 109 98 89 73
189 194 210 209 193 186 236 234 232 218 15 320 244 251 271 253 177 201 223 120 105 34 345 30 307 110 83 109 219 189 111 42 174 260 240 261 281 265 94 138 124 109 106 110 117
195 190 203 196 195 177 220 222 251 256 224 226 239 254 272 288 299 282 261 93 144 111 52 110 206 240 51 180 191 156 195 210 253 203 252 274 257 96 86 109 129 128 131 142 144
190 193 185 171 161 202 214 187 230 218 255 255 280 272 259 281 282 260 240 251 84 122 169 202 188 237 241 288 310 275 266 266 247 254 243 257 258 26 109 119 130 142 170 192 177
185 177 181 173 202 214 214 216 227 198 207 203 231 222 259 244 238 241 246 76 82 68 38 40 241 320 322 288 70 88 42 0 304 255 247 267 267 53 98 125 170 192 199 253 305
171 158 168 203 239 255 212 219 212 211 240 236 233 268 257 246 259 276 280 127 106 103 97 56 225 181 230 262 324 301 291 274 255 277 286 274 287 290 289 313 292 186 192 214 231
179 213 182 191 218 229 273 220 217 200 212 208 247 232 220 236 256 248 252 342 118 129 114 131 252 267 278 290 305 295 277 274 273 266 257 272 280 279 291 310 64 104 116 153 248
198 177 182 333 194 201 217 228 225 235 161 201 230 231 232 235 188 248 84 56 239 89 139 157 254 19 286 276 270 269 266 270 270 268 267 267 269 294 34 37 3 83 138 11 345
213 181 163 169 169 178 212 215 208 205 225 184 238 258 196 12 66 78 51 347 320 159 180 206 163 138 254 35 345 299 248 249 256 260 265 273 284 350 305 254 75 36 329 300 293